Wind_Speed
21 16 15 15 4 7 14 12 13 12 19 22 17 4 21 18 14 21 16 13 17 21 12 15 24 21 16 18 22 11 10 8 4 5 10 17 16 14 8 6 6 6 9 10
26 14 14 15 6 15 14 15 8 11 14 13 9 3 11 16 12 17 19 8 12 14 20 22 14 9 13 13 8 13 9 10 7 7 7 7 5 4 4 7 9 11 13 15
29 18 15 15 11 11 14 12 6 12 16 14 7 6 5 24 12 17 19 11 7 10 11 13 16 14 13 8 6 8 7 6 4 5 6 4 4 6 9 12 12 13 15 17
32 21 17 17 13 12 14 7 7 8 10 9 11 4 9 18 14 20 13 14 10 10 12 10 9 6 6 5 5 7 6 6 6 6 6 7 9 10 13 15 17 16 17 19
27 24 19 19 15 15 11 15 9 8 6 7 8 3 10 15 13 17 22 15 9 10 12 9 7 9 10 9 9 9 10 10 11 11 10 11 12 14 16 18 19 18 19 21
27 26 23 21 18 16 14 14 12 7 10 9 6 9 16 11 6 13 21 17 14 12 12 12 8 8 7 7 10 11 11 11 12 14 14 15 15 17 20 22 21 19 21 27
27 30 26 23 22 18 16 16 15 13 13 4 12 13 11 20 11 15 18 24 24 22 15 11 11 12 7 7 7 7 9 12 11 14 16 16 17 16 19 22 22 25 26 27
33 34 25 22 20 18 18 17 18 11 6 14 20 10 5 7 14 15 15 17 23 28 25 20 16 11 11 8 9 10 11 13 13 11 14 14 17 19 19 17 23 25 27 31
34 30 25 26 22 24 17 23 15 18 20 17 13 6 5 16 23 23 17 17 17 20 28 25 22 20 15 14 12 13 14 13 14 15 15 18 20 22 19 19 22 26 31 34
31 24 25 23 25 28 26 16 18 23 25 18 18 6 20 21 10 16 14 22 18 16 15 22 24 23 21 19 20 20 19 19 19 20 21 21 24 25 24 25 28 31 33 36
35 27 24 27 33 27 28 29 26 24 17 20 19 13 25 24 17 9 15 24 21 14 13 18 20 25 27 28 22 20 23 24 25 26 26 28 27 31 30 31 35 34 37 42
44 33 34 34 33 30 27 24 24 29 24 18 24 19 16 20 20 24 32 30 32 28 20 18 22 23 24 26 26 22 24 27 29 30 30 30 33 34 34 36 37 37 39 40
43 47 32 33 28 36 33 26 22 21 19 29 29 28 23 21 24 24 20 22 19 28 23 24 18 21 23 26 28 26 24 28 34 37 33 31 40 37 36 38 40 39 39 41
44 47 48 41 36 27 31 26 30 26 26 24 27 24 21 17 22 21 23 21 18 22 26 20 20 19 22 24 25 29 30 31 33 36 37 37 32 37 40 37 35 37 41 41
46 46 46 45 42 24 25 24 29 32 31 30 23 22 19 14 20 29 29 19 20 18 24 19 22 25 23 26 28 29 32 31 33 30 32 35 35 35 36 37 39 38 41 42
50 52 41 43 40 38 34 26 24 27 30 29 27 24 22 19 20 25 27 28 30 32 30 24 23 26 33 24 29 32 32 30 31 34 33 34 35 38 40 39 39 40 40 43
46 45 43 47 39 40 45 33 32 31 29 25 25 23 24 23 23 30 37 37 27 28 25 24 29 31 36 30 31 33 34 34 33 33 34 34 35 39 39 39 37 40 43 45
52 44 44 37 42 51 42 42 40 40 28 26 25 25 25 20 25 31 38 22 30 26 26 28 30 33 33 33 33 35 36 36 35 33 32 33 34 36 38 39 42 44 46 48
40 50 47 49 45 45 44 35 35 29 27 27 23 25 24 25 32 35 28 22 31 31 29 31 33 34 33 34 35 36 36 35 35 35 34 34 36 38 40 42 44 47 50 53
40 44 48 37 49 45 41 36 31 29 36 21 26 30 30 29 34 28 27 27 28 30 30 32 33 33 33 35 35 36 35 35 35 36 36 36 38 40 43 45 47 50 53 56
50 45 48 54 46 43 39 30 29 38 30 19 30 25 29 30 30 27 29 29 30 31 32 33 34 34 34 34 35 35 35 34 34 36 38 39 41 44 46 48 51 54 57 59
39 39 43 43 47 44 29 31 36 27 24 33 33 31 32 31 30 32 30 30 30 32 35 34 35 36 36 35 35 35 34 35 37 39 42 44 45 48 51 54 57 58 60 61
43 31 34 41 35 37 37 34 30 34 39 36 37 33 35 35 34 34 34 32 33 35 35 36 37 38 39 39 38 39 39 41 43 45 47 49 51 52 54 56 57 60 62 64
42 35 30 34 37 31 29 32 32 33 33 39 42 34 38 37 34 35 35 35 35 36 38 38 39 41 42 43 44 43 44 46 48 49 50 52 54 57 60 59 61 65 68 68
39 39 41 39 33 32 28 37 22 29 32 30 33 41 42 42 40 38 39 38 38 39 41 41 42 41 43 45 45 44 45 47 47 49 51 53 58 60 61 62 65 66 67 66
35 37 45 43 39 39 38 38 35 35 34 35 38 37 38 41 40 44 44 44 41 40 40 42 42 46 48 46 44 45 46 47 51 54 56 57 56 59 63 65 67 64 64 62
Wind_Direction
275 280 289 282 347 312 270 268 262 303 270 300 309 259 286 286 322 334 344 348 6 16 19 243 241 240 258 260 255 227 209 182 181 157 160 141 139 148 149 185 186 242 238 247
270 275 276 273 233 261 261 270 215 214 271 301 291 208 279 290 301 343 327 4 9 17 29 52 83 137 107 95 113 175 147 122 97 121 112 121 136 164 211 231 245 250 261 258
265 267 263 260 246 263 269 273 221 255 234 265 265 165 248 271 259 331 327 342 19 25 37 43 60 63 73 65 75 66 58 63 38 358 1 348 294 267 259 257 250 260 263 259
257 251 249 256 246 257 256 265 253 237 205 244 279 312 310 319 262 315 358 356 346 10 13 16 22 40 32 40 29 11 18 17 343 328 308 294 286 279 266 267 266 261 256 256
250 244 241 251 243 243 257 229 209 220 229 240 299 289 308 277 275 322 329 319 341 345 348 350 352 352 351 343 347 343 349 340 327 312 304 294 288 284 278 273 272 264 262 263
227 238 233 244 246 235 247 227 212 240 267 249 191 254 283 278 199 264 299 302 303 323 338 324 329 345 310 319 327 328 326 321 319 312 307 301 300 304 300 290 273 267 271 270
231 234 234 236 244 230 230 225 217 241 237 265 237 224 279 295 217 249 298 303 301 312 321 308 297 316 315 293 298 302 299 293 289 295 301 296 299 293 319 284 275 267 270 286
232 235 230 227 238 239 227 229 225 250 234 236 250 228 206 284 275 301 302 286 285 294 300 303 296 288 296 283 291 294 285 285 287 286 289 285 293 294 292 294 278 286 282 287
227 230 229 233 228 228 227 232 232 220 251 242 278 216 180 266 254 266 281 291 293 280 275 289 285 291 285 294 294 287 288 288 286 280 279 284 283 283 289 285 285 289 290 291
210 236 220 237 236 220 216 230 233 227 238 248 244 250 242 242 312 272 282 279 288 300 270 273 281 283 279 282 293 295 291 288 284 286 284 280 282 286 287 286 288 287 291 295
196 200 215 212 234 220 221 228 229 238 242 248 252 238 256 262 262 245 274 286 277 278 280 270 269 272 276 283 283 285 284 284 285 285 286 288 285 282 288 288 288 289 294 297
198 199 207 210 235 231 231 231 234 243 228 236 251 209 234 268 273 282 284 283 281 281 279 272 268 267 272 279 284 281 278 282 283 282 281 283 282 279 285 291 292 295 295 296
203 204 216 216 214 238 222 224 241 254 243 227 239 244 250 259 266 269 285 288 282 285 278 277 268 266 263 267 274 278 278 277 277 280 282 283 279 280 286 292 290 291 290 291
207 209 207 215 215 232 233 227 217 236 251 251 243 249 249 242 273 291 277 272 251 285 279 266 277 271 270 268 271 278 282 279 278 283 283 280 281 289 289 289 286 283 287 291
197 212 214 219 212 221 246 240 231 234 234 242 253 252 250 240 259 254 269 268 265 252 271 273 277 286 277 274 274 275 281 288 287 284 284 281 282 286 287 285 287 283 283 294
198 206 210 217 221 208 219 224 252 238 234 239 249 250 251 252 245 262 266 263 262 260 264 271 280 279 281 274 282 287 288 288 286 286 283 282 283 284 282 279 284 290 294 293
198 210 212 220 218 209 216 207 218 236 237 234 238 245 251 236 246 245 256 261 255 257 267 268 272 276 275 285 285 283 285 284 285 285 284 284 281 281 286 287 290 289 291 293
203 204 206 214 218 219 217 217 226 230 236 238 238 247 257 259 257 248 254 256 257 257 268 269 273 275 280 283 280 282 284 285 283 284 282 280 279 282 285 287 289 292 295 297
215 224 220 219 218 226 224 223 230 238 239 243 244 250 251 250 257 259 267 250 254 264 270 274 276 278 281 281 283 283 284 285 285 283 283 282 283 284 287 289 291 292 293 293
212 223 217 216 222 226 229 230 230 238 244 241 252 253 253 255 261 271 268 262 262 270 274 275 276 278 279 282 282 283 283 282 282 281 281 282 283 284 286 287 289 290 291 293
217 220 229 228 231 232 234 231 235 232 236 244 249 252 257 261 270 274 268 265 265 267 270 275 277 278 279 280 281 282 281 280 278 277 279 281 283 285 287 289 290 291 293 295
208 219 227 230 229 230 231 230 232 233 234 237 251 258 266 267 269 272 275 276 271 271 274 274 276 278 279 279 280 280 280 279 279 281 282 283 285 286 288 289 290 292 293 294
205 207 226 227 231 243 237 246 244 224 224 231 246 257 260 263 267 272 277 277 272 272 274 276 279 281 282 281 280 281 281 280 280 281 283 284 285 287 288 290 294 296 294 294
219 217 209 216 226 238 240 247 238 244 241 241 245 250 258 264 269 274 275 277 277 276 275 277 281 283 285 285 284 283 284 285 286 289 290 290 291 289 287 290 294 298 298 297
227 234 233 231 226 229 232 238 233 251 245 249 260 258 258 265 270 270 271 273 279 282 282 279 278 282 287 287 285 285 286 288 290 290 291 291 290 292 295 292 294 296 296 296
220 229 231 233 239 242 241 244 246 247 256 253 264 263 266 270 273 270 271 273 278 281 282 278 282 283 285 285 285 287 287 289 292 292 291 293 295 294 296 296 295 294 294 293
Height
5758 5757 5755 5754 5752 5753 5754 5754 5754 5756 5751 5750 5749 5750 5747 5745 5747 5741 5742 5736 5735 5730 5725 5725 5727 5728 5728 5729 5732 5736 5737 5740 5741 5742 5744 5745 5749 5752 5755 5758 5760 5764 5766 5766
5753 5754 5751 5751 5750 5752 5751 5750 5751 5751 5752 5748 5747 5746 5747 5746 5745 5744 5739 5739 5735 5734 5731 5729 5729 5729 5731 5734 5736 5738 5739 5741 5744 5746 5746 5748 5752 5755 5756 5758 5760 5762 5764 5765
5747 5750 5747 5747 5747 5748 5748 5748 5747 5748 5748 5747 5745 5744 5746 5743 5742 5742 5741 5738 5738 5737 5736 5734 5733 5735 5736 5738 5739 5740 5741 5743 5744 5745 5747 5749 5752 5755 5757 5758 5759 5761 5762 5762
5739 5744 5743 5743 5743 5744 5744 5746 5745 5744 5744 5746 5744 5744 5743 5744 5741 5742 5740 5738 5736 5736 5737 5736 5736 5736 5738 5739 5740 5741 5741 5742 5745 5746 5748 5750 5752 5753 5755 5756 5756 5756 5757 5757
5737 5737 5738 5738 5740 5740 5742 5741 5742 5742 5742 5743 5743 5743 5742 5742 5742 5738 5737 5737 5738 5737 5737 5738 5738 5739 5739 5739 5740 5741 5740 5742 5744 5745 5747 5749 5749 5750 5751 5752 5752 5753 5753 5753
5727 5731 5732 5734 5734 5736 5738 5739 5740 5740 5740 5739 5741 5742 5740 5740 5739 5742 5737 5737 5736 5737 5738 5737 5737 5738 5739 5739 5740 5740 5741 5743 5744 5744 5745 5745 5745 5746 5747 5748 5749 5750 5750 5749
5721 5724 5726 5728 5729 5731 5733 5735 5736 5737 5735 5738 5738 5740 5739 5739 5739 5739 5739 5735 5733 5733 5734 5736 5737 5736 5737 5738 5739 5739 5740 5741 5743 5743 5742 5742 5742 5742 5743 5744 5745 5746 5746 5745
5711 5716 5721 5723 5725 5727 5729 5731 5732 5733 5733 5731 5733 5736 5740 5735 5735 5737 5738 5738 5734 5732 5732 5732 5733 5735 5735 5736 5735 5735 5736 5737 5737 5739 5738 5738 5739 5740 5740 5739 5739 5740 5739 5739
5702 5710 5715 5716 5720 5722 5724 5724 5731 5729 5730 5730 5732 5734 5736 5737 5734 5733 5733 5733 5732 5732 5729 5729 5729 5728 5731 5732 5733 5734 5733 5734 5734 5734 5735 5734 5734 5735 5735 5734 5734 5733 5732 5729
5695 5705 5708 5711 5713 5716 5718 5722 5724 5724 5725 5726 5729 5732 5730 5728 5728 5728 5730 5727 5727 5727 5727 5727 5725 5726 5725 5727 5728 5729 5729 5728 5728 5728 5729 5730 5729 5728 5730 5729 5729 5727 5724 5722
5688 5695 5702 5708 5704 5709 5713 5714 5717 5720 5721 5721 5723 5728 5723 5724 5725 5723 5725 5722 5723 5723 5723 5724 5724 5723 5722 5721 5723 5724 5724 5724 5723 5723 5723 5723 5722 5720 5720 5720 5719 5718 5714 5711
5678 5685 5690 5696 5701 5704 5707 5709 5712 5713 5717 5717 5718 5721 5722 5720 5720 5721 5719 5721 5718 5718 5719 5720 5719 5720 5719 5717 5717 5718 5719 5718 5717 5716 5716 5717 5713 5712 5712 5710 5708 5707 5704 5702
5670 5675 5682 5688 5693 5694 5698 5701 5706 5708 5709 5710 5712 5713 5717 5717 5716 5718 5716 5715 5713 5711 5713 5711 5714 5715 5715 5714 5711 5712 5713 5712 5709 5707 5708 5711 5706 5705 5704 5703 5701 5697 5696 5693
5659 5664 5669 5677 5684 5693 5692 5696 5699 5702 5703 5704 5704 5708 5710 5711 5711 5708 5710 5708 5707 5706 5706 5707 5706 5707 5708 5709 5708 5705 5704 5703 5702 5700 5701 5699 5695 5696 5694 5693 5691 5689 5686 5684
5648 5653 5663 5671 5679 5685 5688 5690 5693 5694 5696 5697 5701 5701 5704 5705 5707 5705 5705 5703 5704 5703 5701 5701 5701 5700 5702 5702 5701 5700 5697 5697 5694 5694 5692 5691 5690 5688 5686 5683 5682 5681 5677 5674
5637 5645 5654 5661 5668 5675 5678 5682 5685 5687 5689 5691 5693 5694 5697 5699 5700 5699 5698 5697 5698 5698 5697 5696 5697 5696 5691 5694 5694 5692 5691 5691 5688 5686 5684 5683 5681 5679 5677 5675 5673 5670 5668 5665
5630 5638 5646 5651 5660 5667 5666 5672 5678 5681 5682 5685 5686 5689 5690 5691 5691 5692 5690 5689 5691 5692 5691 5692 5691 5689 5683 5687 5688 5685 5684 5683 5681 5679 5677 5675 5674 5671 5669 5667 5664 5661 5658 5655
5625 5630 5637 5645 5652 5647 5658 5666 5670 5670 5674 5676 5678 5680 5682 5683 5684 5684 5680 5684 5684 5685 5685 5685 5684 5681 5681 5681 5679 5677 5675 5673 5673 5671 5669 5668 5665 5662 5659 5656 5654 5651 5648 5644
5621 5626 5630 5635 5640 5647 5652 5658 5661 5666 5669 5671 5673 5674 5674 5676 5674 5674 5673 5678 5677 5678 5678 5677 5676 5674 5675 5672 5670 5668 5667 5666 5664 5662 5660 5657 5656 5653 5651 5648 5644 5640 5636 5632
5615 5619 5625 5628 5632 5634 5644 5652 5656 5660 5657 5667 5666 5665 5666 5668 5665 5667 5669 5669 5670 5670 5670 5669 5668 5668 5666 5664 5662 5660 5658 5656 5654 5653 5650 5648 5646 5643 5640 5637 5633 5629 5624 5620
5605 5611 5614 5622 5625 5631 5638 5646 5650 5649 5656 5660 5655 5657 5657 5659 5660 5662 5661 5661 5662 5662 5661 5660 5659 5659 5658 5655 5653 5651 5649 5647 5645 5643 5641 5639 5636 5633 5629 5625 5621 5616 5611 5605
5599 5603 5608 5616 5619 5624 5631 5635 5640 5648 5650 5649 5648 5650 5650 5651 5653 5653 5653 5653 5653 5653 5652 5651 5649 5648 5647 5646 5645 5642 5641 5639 5636 5634 5632 5629 5625 5621 5617 5612 5607 5602 5596 5590
5590 5595 5603 5609 5615 5618 5624 5627 5633 5634 5635 5640 5639 5641 5641 5643 5644 5644 5644 5644 5643 5643 5642 5641 5640 5639 5638 5636 5634 5633 5631 5629 5626 5622 5620 5616 5612 5608 5603 5598 5593 5587 5581 5575
5586 5590 5594 5600 5608 5612 5617 5619 5623 5627 5630 5631 5631 5634 5632 5634 5636 5636 5635 5635 5635 5633 5632 5631 5631 5629 5628 5626 5624 5622 5620 5618 5615 5611 5607 5603 5598 5593 5588 5584 5579 5572 5565 5558
5581 5586 5590 5595 5601 5602 5607 5611 5612 5619 5620 5623 5625 5626 5625 5626 5627 5627 5626 5626 5625 5624 5623 5621 5619 5618 5616 5614 5612 5610 5608 5605 5602 5597 5593 5588 5583 5578 5573 5568 5562 5555 5547 5540
5574 5579 5582 5588 5594 5597 5601 5604 5607 5611 5614 5616 5615 5616 5617 5616 5616 5616 5616 5616 5614 5613 5611 5609 5609 5607 5604 5602 5600 5598 5594 5591 5587 5583 5578 5572 5567 5562 5556 5549 5543 5538 5530 5523